Time,TemperatureF,DewpointF,PressureIn,WindDirection,WindDirectionDegrees,WindSpeedMPH,WindSpeedGustMPH,Humidity,HourlyPrecipIn,Conditions,Clouds,dailyrainin,SoftwareType,DateUTC
2013-06-01 00:02:00,45.5,37.7,30.23,NNW,338,0.0,0.0,74,0.00,CLR,FEW,0.00,WeatherDisplay:10.37,2013-06-01 07:02:00,
2013-06-01 00:07:00,45.3,37.9,30.23,NNW,338,0.0,0.0,75,0.00,CLR,FEW,0.00,WeatherDisplay:10.37,2013-06-01 07:07:00,
2013-06-01 00:12:00,45.1,37.7,30.23,NNW,338,0.0,0.0,75,0.00,CLR,FEW,0.00,WeatherDisplay:10.37,2013-06-01 07:12:00,
2013-06-01 00:17:00,45.0,37.2,30.23,NNW,338,0.0,0.0,74,0.00,CLR,FEW,0.00,WeatherDisplay:10.37,2013-06-01 07:17:00,
2013-06-01 00:22:00,45.0,37.5,30.23,NNW,338,0.0,0.0,75,0.00,CLR,FEW,0.00,WeatherDisplay:10.37,2013-06-01 07:22:00,
2013-06-01 00:27:00,44.8,37.3,30.23,NNW,338,0.0,0.0,75,0.00,CLR,FEW,0.00,WeatherDisplay:10.37,2013-06-01 07:27:00,
2013-06-01 00:32:00,44.4,37.0,30.23,NNW,338,0.0,0.0,75,0.00,CLR,FEW,0.00,WeatherDisplay:10.37,2013-06-01 07:32:00,
2013-06-01 00:37:00,44.4,37.0,30.23,NNW,338,0.0,0.0,75,0.00,CLR,FEW,0.00,WeatherDisplay:10.37,2013-06-01 07:37:00,
2013-06-01 00:42:00,44.4,37.0,30.23,NNW,338,0.0,0.0,75,0.00,CLR,FEW,0.00,WeatherDisplay:10.37,2013-06-01 07:42:00,
2013-06-01 00:47:00,44.2,37.2,30.23,NNW,338,0.0,0.0,76,0.00,CLR,FEW,0.00,WeatherDisplay:10.37,2013-06-01 07:47:00,
2013-06-01 00:52:00,44.1,37.0,30.23,NNW,338,0.0,0.0,76,0.00,CLR,FEW,0.00,WeatherDisplay:10.37,2013-06-01 07:52:00,
2013-06-01 00:57:00,43.9,36.8,30.23,NNW,338,0.0,0.0,76,0.00,CLR,FEW,0.00,WeatherDisplay:10.37,2013-06-01 07:57:00,
2013-06-01 01:02:00,43.7,36.6,30.23,NNW,338,0.0,0.0,76,0.00,CLR,FEW,0.00,WeatherDisplay:10.37,2013-06-01 08:02:00,
2013-06-01 01:07:00,43.7,37.0,30.23,NNW,338,0.0,0.0,77,0.00,CLR,FEW,0.00,WeatherDisplay:10.37,2013-06-01 08:07:00,
2013-06-01 01:12:00,43.5,36.8,30.23,NNW,338,0.0,0.0,77,0.00,CLR,FEW,0.00,WeatherDisplay:10.37,2013-06-01 08:12:00,
2013-06-01 01:17:00,43.5,36.8,30.23,NNW,338,0.0,0.0,77,0.00,CLR,FEW,0.00,WeatherDisplay:10.37,2013-06-01 08:17:00,
2013-06-01 01:22:00,43.3,36.6,30.23,NNW,338,0.0,0.0,77,0.00,CLR,FEW,0.00,WeatherDisplay:10.37,2013-06-01 08:22:00,
2013-06-01 01:27:00,43.2,36.4,30.23,NNW,338,0.0,0.0,77,0.00,CLR,FEW,0.00,WeatherDisplay:10.37,2013-06-01 08:27:00,
2013-06-01 01:32:00,43.0,36.3,30.23,NNW,338,0.0,0.0,77,0.00,CLR,FEW,0.00,WeatherDisplay:10.37,2013-06-01 08:32:00,
2013-06-01 01:37:00,43.0,36.3,30.23,NNW,338,0.0,0.0,77,0.00,CLR,FEW,0.00,WeatherDisplay:10.37,2013-06-01 08:37:00,
2013-06-01 01:42:00,42.6,35.9,30.23,NNW,338,0.0,0.0,77,0.00,CLR,FEW,0.00,WeatherDisplay:10.37,2013-06-01 08:42:00,
2013-06-01 01:47:00,42.6,36.2,30.23,NNW,338,0.0,0.0,78,0.00,CLR,FEW,0.00,WeatherDisplay:10.37,2013-06-01 08:47:00,
2013-06-01 01:52:00,42.6,36.2,30.23,NNW,338,0.0,0.0,78,0.00,CLR,FEW,0.00,WeatherDisplay:10.37,2013-06-01 08:52:00,
2013-06-01 01:57:00,42.4,36.1,30.23,NNW,338,0.0,0.0,78,0.00,CLR,FEW,0.00,WeatherDisplay:10.37,2013-06-01 08:57:00,
2013-06-01 02:02:00,42.4,36.1,30.23,NNW,338,0.0,0.0,78,0.00,CLR,FEW,0.00,WeatherDisplay:10.37,2013-06-01 09:02:00,
2013-06-01 02:07:00,42.1,35.7,30.23,NNW,338,0.0,0.0,78,0.00,CLR,FEW,0.00,WeatherDisplay:10.37,2013-06-01 09:07:00,
2013-06-01 02:12:00,42.1,36.0,30.22,NNW,338,0.0,0.0,79,0.00,CLR,FEW,0.00,WeatherDisplay:10.37,2013-06-01 09:12:00,
2013-06-01 02:17:00,41.9,35.9,30.22,NNW,338,0.0,0.0,79,0.00,CLR,FEW,0.00,WeatherDisplay:10.37,2013-06-01 09:17:00,
2013-06-01 02:22:00,41.7,35.7,30.23,NNW,338,0.0,0.0,79,0.00,CLR,FEW,0.00,WeatherDisplay:10.37,2013-06-01 09:22:00,
2013-06-01 02:27:00,41.7,35.7,30.23,NNW,338,0.0,0.0,79,0.00,CLR,FEW,0.00,WeatherDisplay:10.37,2013-06-01 09:27:00,
2013-06-01 02:32:00,41.5,35.5,30.22,NNW,338,0.0,0.0,79,0.00,CLR,FEW,0.00,WeatherDisplay:10.37,2013-06-01 09:32:00,
2013-06-01 02:37:00,41.4,35.3,30.23,NNW,338,0.0,0.0,79,0.00,CLR,FEW,0.00,WeatherDisplay:10.37,2013-06-01 09:37:00,
2013-06-01 02:42:00,41.2,35.2,30.23,NNW,338,0.0,0.0,79,0.00,CLR,FEW,0.00,WeatherDisplay:10.37,2013-06-01 09:42:00,
2013-06-01 02:47:00,41.0,35.0,30.23,NNW,338,0.0,0.0,79,0.00,CLR,FEW,0.00,WeatherDisplay:10.37,2013-06-01 09:47:00,
2013-06-01 02:52:00,41.0,35.0,30.23,NNW,338,0.0,0.0,79,0.00,CLR,FEW,0.00,WeatherDisplay:10.37,2013-06-01 09:52:00,
2013-06-01 02:57:00,40.8,35.1,30.22,NNW,338,0.0,0.0,80,0.00,CLR,FEW,0.00,WeatherDisplay:10.37,2013-06-01 09:57:00,
2013-06-01 03:02:00,40.8,35.1,30.22,NNW,338,0.0,0.0,80,0.00,CLR,FEW,0.00,WeatherDisplay:10.37,2013-06-01 10:02:00,
2013-06-01 03:07:00,40.6,35.0,30.23,NNW,338,0.0,0.0,80,0.00,CLR,FEW,0.00,WeatherDisplay:10.37,2013-06-01 10:07:00,
2013-06-01 03:12:00,40.6,35.0,30.22,NNW,338,0.0,0.0,80,0.00,CLR,FEW,0.00,WeatherDisplay:10.37,2013-06-01 10:12:00,
2013-06-01 03:17:00,40.5,34.8,30.22,NNW,338,0.0,0.0,80,0.00,CLR,FEW,0.00,WeatherDisplay:10.37,2013-06-01 10:17:00,
2013-06-01 03:22:00,40.3,34.6,30.23,NNW,338,0.0,0.0,80,0.00,CLR,FEW,0.00,WeatherDisplay:10.37,2013-06-01 10:22:00,
2013-06-01 03:27:00,40.1,34.4,30.23,NNW,338,0.0,0.0,80,0.00,CLR,FEW,0.00,WeatherDisplay:10.37,2013-06-01 10:27:00,
2013-06-01 03:32:00,39.9,34.2,30.23,NNW,338,0.0,0.0,80,0.00,CLR,FEW,0.00,WeatherDisplay:10.37,2013-06-01 10:32:00,
2013-06-01 03:37:00,39.9,34.2,30.23,NNW,338,0.0,0.0,80,0.00,CLR,FEW,0.00,WeatherDisplay:10.37,2013-06-01 10:37:00,
2013-06-01 03:42:00,39.9,34.2,30.23,NNW,338,0.0,0.0,80,0.00,CLR,FEW,0.00,WeatherDisplay:10.37,2013-06-01 10:42:00,
2013-06-01 03:47:00,39.9,34.6,30.23,NNW,338,0.0,0.0,81,0.00,CLR,FEW,0.00,WeatherDisplay:10.37,2013-06-01 10:47:00,
2013-06-01 03:52:00,39.7,34.4,30.23,NNW,338,0.0,0.0,81,0.00,CLR,FEW,0.00,WeatherDisplay:10.37,2013-06-01 10:52:00,
2013-06-01 03:57:00,39.7,34.4,30.23,NNW,338,0.0,0.0,81,0.00,CLR,FEW,0.00,WeatherDisplay:10.37,2013-06-01 10:57:00,
2013-06-01 04:02:00,39.6,34.2,30.23,NNW,338,0.0,0.0,81,0.00,CLR,FEW,0.00,WeatherDisplay:10.37,2013-06-01 11:02:00,
2013-06-01 04:07:00,39.4,34.0,30.23,NNW,338,0.0,0.0,81,0.00,CLR,FEW,0.00,WeatherDisplay:10.37,2013-06-01 11:07:00,
2013-06-01 04:12:00,39.4,34.3,30.23,NNW,338,0.0,0.0,82,0.00,CLR,FEW,0.00,WeatherDisplay:10.37,2013-06-01 11:12:00,
2013-06-01 04:17:00,39.4,34.3,30.23,NNW,338,0.0,0.0,82,0.00,CLR,FEW,0.00,WeatherDisplay:10.37,2013-06-01 11:17:00,
2013-06-01 04:22:00,39.0,34.0,30.23,NNW,338,0.0,0.0,82,0.00,CLR,FEW,0.00,WeatherDisplay:10.37,2013-06-01 11:22:00,
2013-06-01 04:27:00,39.0,34.0,30.23,NNW,338,0.0,0.0,82,0.00,CLR,FEW,0.00,WeatherDisplay:10.37,2013-06-01 11:27:00,
2013-06-01 04:32:00,39.0,34.0,30.23,NNW,338,0.0,0.0,82,0.00,CLR,FEW,0.00,WeatherDisplay:10.37,2013-06-01 11:32:00,
2013-06-01 04:37:00,39.0,34.0,30.23,NNW,338,0.0,0.0,82,0.00,CLR,FEW,0.00,WeatherDisplay:10.37,2013-06-01 11:37:00,
2013-06-01 04:42:00,38.8,33.8,30.23,NNW,338,0.0,0.0,82,0.00,CLR,FEW,0.00,WeatherDisplay:10.37,2013-06-01 11:42:00,
2013-06-01 04:47:00,38.8,33.8,30.23,NNW,338,0.0,0.0,82,0.00,CLR,FEW,0.00,WeatherDisplay:10.37,2013-06-01 11:47:00,
2013-06-01 04:52:00,38.8,33.8,30.23,NNW,338,0.0,0.0,82,0.00,CLR,FEW,0.00,WeatherDisplay:10.37,2013-06-01 11:52:00,
2013-06-01 04:57:00,38.8,33.8,30.23,NNW,338,0.0,0.0,82,0.00,CLR,FEW,0.00,WeatherDisplay:10.37,2013-06-01 11:57:00,
2013-06-01 05:02:00,38.8,33.8,30.23,NNW,338,0.0,0.0,82,0.00,CLR,FEW,0.00,WeatherDisplay:10.37,2013-06-01 12:02:00,
2013-06-01 05:07:00,38.8,34.1,30.23,NNW,338,0.0,0.0,83,0.00,CLR,FEW,0.00,WeatherDisplay:10.37,2013-06-01 12:07:00,
2013-06-01 05:12:00,38.8,34.1,30.23,NNW,338,0.0,0.0,83,0.00,CLR,FEW,0.00,WeatherDisplay:10.37,2013-06-01 12:12:00,
2013-06-01 05:17:00,38.8,34.1,30.23,NNW,338,0.0,0.0,83,0.00,CLR,FEW,0.00,WeatherDisplay:10.37,2013-06-01 12:17:00,
2013-06-01 05:22:00,39.0,34.3,30.23,NNW,338,0.0,0.0,83,0.00,CLR,FEW,0.00,WeatherDisplay:10.37,2013-06-01 12:22:00,
2013-06-01 05:27:00,39.0,34.3,30.23,NNW,338,0.0,0.0,83,0.00,CLR,FEW,0.00,WeatherDisplay:10.37,2013-06-01 12:27:00,
2013-06-01 05:32:00,39.0,34.3,30.23,NNW,338,0.0,0.0,83,0.00,CLR,FEW,0.00,WeatherDisplay:10.37,2013-06-01 12:32:00,
2013-06-01 05:37:00,39.0,34.6,30.23,NNW,338,0.0,0.0,84,0.00,CLR,FEW,0.00,WeatherDisplay:10.37,2013-06-01 12:37:00,
2013-06-01 05:42:00,39.0,34.6,30.23,NNW,338,0.0,0.0,84,0.00,CLR,FEW,0.00,WeatherDisplay:10.37,2013-06-01 12:42:00,
2013-06-01 05:47:00,39.0,34.6,30.23,NNW,338,0.0,0.0,84,0.00,CLR,FEW,0.00,WeatherDisplay:10.37,2013-06-01 12:47:00,
2013-06-01 05:52:00,39.0,34.6,30.23,NNW,338,0.0,0.0,84,0.00,CLR,FEW,0.00,WeatherDisplay:10.37,2013-06-01 12:52:00,
2013-06-01 05:57:00,39.4,34.9,30.23,NNW,338,0.0,0.0,84,0.00,CLR,FEW,0.00,WeatherDisplay:10.37,2013-06-01 12:57:00,
2013-06-01 06:02:00,39.4,34.9,30.23,NW,315,0.0,0.0,84,0.00,CLR,FEW,0.00,WeatherDisplay:10.37,2013-06-01 13:02:00,
2013-06-01 06:07:00,40.8,36.7,30.23,NW,315,0.0,0.0,85,0.00,CLR,FEW,0.00,WeatherDisplay:10.37,2013-06-01 13:07:00,
2013-06-01 06:12:00,43.3,38.8,30.23,NW,315,0.0,0.0,84,0.00,CLR,FEW,0.00,WeatherDisplay:10.37,2013-06-01 13:12:00,
2013-06-01 06:17:00,48.2,42.6,30.23,NW,315,0.0,0.0,81,0.00,CLR,FEW,0.00,WeatherDisplay:10.37,2013-06-01 13:17:00,
2013-06-01 06:22:00,50.5,44.3,30.22,NW,315,0.0,0.0,79,0.00,CLR,FEW,0.00,WeatherDisplay:10.37,2013-06-01 13:22:00,
2013-06-01 06:27:00,51.4,44.5,30.22,NNW,338,0.0,0.0,77,0.00,CLR,FEW,0.00,WeatherDisplay:10.37,2013-06-01 13:27:00,
2013-06-01 06:32:00,52.2,44.5,30.22,NNW,338,0.0,0.0,75,0.00,CLR,FEW,0.00,WeatherDisplay:10.37,2013-06-01 13:32:00,
2013-06-01 06:37:00,52.3,43.9,30.22,NNW,338,0.0,0.0,73,0.00,CLR,FEW,0.00,WeatherDisplay:10.37,2013-06-01 13:37:00,
2013-06-01 06:42:00,52.3,43.6,30.22,NNW,338,0.0,0.0,72,0.00,CLR,FEW,0.00,WeatherDisplay:10.37,2013-06-01 13:42:00,
2013-06-01 06:47:00,52.9,43.7,30.22,NNW,338,0.0,0.0,71,0.00,CLR,FEW,0.00,WeatherDisplay:10.37,2013-06-01 13:47:00,
2013-06-01 06:52:00,53.2,43.3,30.22,NNW,338,0.0,0.0,69,0.00,CLR,FEW,0.00,WeatherDisplay:10.37,2013-06-01 13:52:00,
2013-06-01 06:57:00,53.4,43.5,30.21,NNW,338,0.0,0.0,69,0.00,CLR,FEW,0.00,WeatherDisplay:10.37,2013-06-01 13:57:00,
2013-06-01 07:02:00,55.8,45.0,30.21,NNW,338,0.0,0.0,67,0.00,CLR,FEW,0.00,WeatherDisplay:10.37,2013-06-01 14:02:00,
2013-06-01 07:07:00,56.1,44.9,30.21,NNW,338,0.0,0.0,66,0.00,CLR,FEW,0.00,WeatherDisplay:10.37,2013-06-01 14:07:00,
2013-06-01 07:12:00,57.6,45.5,30.21,NNW,338,0.0,0.0,64,0.00,CLR,FEW,0.00,WeatherDisplay:10.37,2013-06-01 14:12:00,
2013-06-01 07:17:00,57.7,45.2,30.21,NNW,338,0.0,0.0,63,0.00,CLR,FEW,0.00,WeatherDisplay:10.37,2013-06-01 14:17:00,
2013-06-01 07:22:00,57.7,45.2,30.21,NNW,338,0.0,0.0,63,0.00,CLR,FEW,0.00,WeatherDisplay:10.37,2013-06-01 14:22:00,
2013-06-01 07:27:00,58.3,44.9,30.21,NNW,338,0.0,0.0,61,0.00,CLR,FEW,0.00,WeatherDisplay:10.37,2013-06-01 14:27:00,
2013-06-01 07:32:00,57.4,44.0,30.21,NNW,338,0.0,0.0,61,0.00,CLR,FEW,0.00,WeatherDisplay:10.37,2013-06-01 14:32:00,
2013-06-01 07:37:00,57.0,44.1,30.21,NNW,338,0.0,0.0,62,0.00,CLR,FEW,0.00,WeatherDisplay:10.37,2013-06-01 14:37:00,
2013-06-01 07:42:00,57.7,44.4,30.21,NNW,338,0.0,0.0,61,0.00,CLR,FEW,0.00,WeatherDisplay:10.37,2013-06-01 14:42:00,
2013-06-01 07:47:00,57.0,44.1,30.21,NNW,338,0.0,0.0,62,0.00,CLR,FEW,0.00,WeatherDisplay:10.37,2013-06-01 14:47:00,
2013-06-01 07:52:00,56.7,43.8,30.21,NNW,338,0.0,0.0,62,0.00,CLR,FEW,0.00,WeatherDisplay:10.37,2013-06-01 14:52:00,
2013-06-01 07:57:00,55.9,43.1,30.21,NNW,338,0.0,0.0,62,0.00,CLR,FEW,0.00,WeatherDisplay:10.37,2013-06-01 14:57:00,
2013-06-01 08:02:00,55.9,43.1,30.20,NNW,338,0.0,0.0,62,0.00,CLR,FEW,0.00,WeatherDisplay:10.37,2013-06-01 15:02:00,
2013-06-01 08:07:00,55.9,42.7,30.20,NNW,338,0.0,0.0,61,0.00,CLR,FEW,0.00,WeatherDisplay:10.37,2013-06-01 15:07:00,
2013-06-01 08:12:00,55.6,42.3,30.20,NNW,338,0.0,0.0,61,0.00,CLR,FEW,0.00,WeatherDisplay:10.37,2013-06-01 15:12:00,
2013-06-01 08:17:00,55.9,43.1,30.20,NNW,338,0.0,0.0,62,0.00,CLR,FEW,0.00,WeatherDisplay:10.37,2013-06-01 15:17:00,
2013-06-01 08:22:00,56.1,43.3,30.20,NNW,338,0.0,0.0,62,0.00,CLR,FEW,0.00,WeatherDisplay:10.37,2013-06-01 15:22:00,
2013-06-01 08:27:00,56.1,43.3,30.20,NNW,338,0.0,0.0,62,0.00,CLR,FEW,0.00,WeatherDisplay:10.37,2013-06-01 15:27:00,
2013-06-01 08:32:00,56.5,43.6,30.19,NNW,338,0.0,0.0,62,0.00,CLR,FEW,0.00,WeatherDisplay:10.37,2013-06-01 15:32:00,
2013-06-01 08:37:00,56.5,43.6,30.19,NNW,338,0.0,0.0,62,0.00,CLR,FEW,0.00,WeatherDisplay:10.37,2013-06-01 15:37:00,
2013-06-01 08:42:00,56.5,43.6,30.19,NNW,338,0.0,0.0,62,0.00,CLR,FEW,0.00,WeatherDisplay:10.37,2013-06-01 15:42:00,
2013-06-01 08:47:00,57.0,44.1,30.19,NNW,338,0.0,0.0,62,0.00,CLR,FEW,0.00,WeatherDisplay:10.37,2013-06-01 15:47:00,
2013-06-01 08:52:00,57.4,44.5,30.19,NNW,338,0.0,0.0,62,0.00,CLR,FEW,0.00,WeatherDisplay:10.37,2013-06-01 15:52:00,
2013-06-01 08:57:00,57.7,44.8,30.18,NNW,338,0.0,0.0,62,0.00,CLR,FEW,0.00,WeatherDisplay:10.37,2013-06-01 15:57:00,
2013-06-01 09:02:00,58.6,45.2,30.18,NNW,338,0.0,0.0,61,0.00,CLR,FEW,0.00,WeatherDisplay:10.37,2013-06-01 16:02:00,
2013-06-01 09:07:00,58.8,45.4,30.18,NNW,338,0.0,0.0,61,0.00,CLR,FEW,0.00,WeatherDisplay:10.37,2013-06-01 16:07:00,
2013-06-01 09:12:00,58.8,45.4,30.18,NNW,338,0.0,0.0,61,0.00,CLR,FEW,0.00,WeatherDisplay:10.37,2013-06-01 16:12:00,
2013-06-01 09:17:00,59.2,45.7,30.18,NNW,338,0.0,0.0,61,0.00,CLR,FEW,0.00,WeatherDisplay:10.37,2013-06-01 16:17:00,
2013-06-01 09:22:00,59.2,45.7,30.18,NNW,338,0.0,0.0,61,0.00,CLR,FEW,0.00,WeatherDisplay:10.37,2013-06-01 16:22:00,
2013-06-01 09:27:00,59.4,45.5,30.18,NNW,338,0.0,0.0,60,0.00,CLR,FEW,0.00,WeatherDisplay:10.37,2013-06-01 16:27:00,
2013-06-01 09:32:00,59.9,46.0,30.17,NNW,338,0.0,0.0,60,0.00,CLR,FEW,0.00,WeatherDisplay:10.37,2013-06-01 16:32:00,
2013-06-01 09:37:00,61.0,46.5,30.17,NNW,338,0.0,0.0,59,0.00,CLR,FEW,0.00,WeatherDisplay:10.37,2013-06-01 16:37:00,
2013-06-01 09:42:00,61.7,46.8,30.17,NNW,338,0.0,0.0,58,0.00,CLR,FEW,0.00,WeatherDisplay:10.37,2013-06-01 16:42:00,
2013-06-01 09:47:00,62.2,45.4,30.16,NNW,338,0.0,0.0,54,0.00,CLR,FEW,0.00,WeatherDisplay:10.37,2013-06-01 16:47:00,
2013-06-01 09:52:00,61.9,45.0,30.16,NNW,338,0.0,0.0,54,0.00,CLR,FEW,0.00,WeatherDisplay:10.37,2013-06-01 16:52:00,
2013-06-01 09:57:00,62.2,45.4,30.16,NNW,338,0.0,0.0,54,0.00,CLR,FEW,0.00,WeatherDisplay:10.37,2013-06-01 16:57:00,
2013-06-01 10:02:00,62.4,45.1,30.16,NNW,338,0.0,0.0,53,0.00,CLR,FEW,0.00,WeatherDisplay:10.37,2013-06-01 17:02:00,
2013-06-01 10:07:00,62.6,45.2,30.16,NNW,338,0.0,0.0,53,0.00,CLR,FEW,0.00,WeatherDisplay:10.37,2013-06-01 17:07:00,
2013-06-01 10:12:00,63.5,46.6,30.16,NNW,338,0.0,0.0,54,0.00,CLR,FEW,0.00,WeatherDisplay:10.37,2013-06-01 17:12:00,
2013-06-01 10:17:00,63.5,46.1,30.15,NNW,338,0.0,0.0,53,0.00,CLR,FEW,0.00,WeatherDisplay:10.37,2013-06-01 17:17:00,
2013-06-01 10:22:00,63.7,46.7,30.15,NNW,338,0.0,0.0,54,0.00,CLR,FEW,0.00,WeatherDisplay:10.37,2013-06-01 17:22:00,
2013-06-01 10:27:00,64.0,46.6,30.14,NNW,338,0.0,0.0,53,0.00,CLR,FEW,0.00,WeatherDisplay:10.37,2013-06-01 17:27:00,
2013-06-01 10:32:00,64.2,46.7,30.14,NNW,338,0.0,0.0,53,0.00,CLR,FEW,0.00,WeatherDisplay:10.37,2013-06-01 17:32:00,
2013-06-01 10:37:00,64.4,46.9,30.14,NNW,338,0.0,0.0,53,0.00,CLR,FEW,0.00,WeatherDisplay:10.37,2013-06-01 17:37:00,
2013-06-01 10:42:00,65.1,47.6,30.14,NNW,338,0.0,0.0,53,0.00,CLR,FEW,0.00,WeatherDisplay:10.37,2013-06-01 17:42:00,
2013-06-01 10:47:00,65.8,47.7,30.13,NNW,338,0.0,0.0,52,0.00,CLR,FEW,0.00,WeatherDisplay:10.37,2013-06-01 17:47:00,
2013-06-01 10:52:00,66.4,47.7,30.13,NNW,338,0.0,0.0,51,0.00,CLR,FEW,0.00,WeatherDisplay:10.37,2013-06-01 17:52:00,
2013-06-01 10:57:00,66.7,48.0,30.13,NNW,338,0.0,0.0,51,0.00,CLR,FEW,0.00,WeatherDisplay:10.37,2013-06-01 17:57:00,
2013-06-01 11:02:00,66.7,48.0,30.13,NNW,338,0.0,0.0,51,0.00,CLR,FEW,0.00,WeatherDisplay:10.37,2013-06-01 18:02:00,
2013-06-01 11:07:00,66.6,47.3,30.13,NNW,338,0.0,0.0,50,0.00,CLR,FEW,0.00,WeatherDisplay:10.37,2013-06-01 18:07:00,
2013-06-01 11:12:00,66.7,47.0,30.12,NNW,338,0.0,0.0,49,0.00,CLR,FEW,0.00,WeatherDisplay:10.37,2013-06-01 18:12:00,
2013-06-01 11:17:00,67.3,47.5,30.12,NNW,338,0.0,0.0,49,0.00,CLR,FEW,0.00,WeatherDisplay:10.37,2013-06-01 18:17:00,
2013-06-01 11:22:00,68.0,47.6,30.11,NNW,338,0.0,0.0,48,0.00,CLR,FEW,0.00,WeatherDisplay:10.37,2013-06-01 18:22:00,
2013-06-01 11:27:00,68.2,48.3,30.11,NNW,338,0.0,0.0,49,0.00,CLR,FEW,0.00,WeatherDisplay:10.37,2013-06-01 18:27:00,
2013-06-01 11:32:00,68.4,47.9,30.11,NNW,338,0.0,0.0,48,0.00,CLR,FEW,0.00,WeatherDisplay:10.37,2013-06-01 18:32:00,
2013-06-01 11:37:00,68.2,47.7,30.11,NNW,338,0.0,0.0,48,0.00,CLR,FEW,0.00,WeatherDisplay:10.37,2013-06-01 18:37:00,
2013-06-01 11:42:00,67.8,47.4,30.11,NNW,338,0.0,0.0,48,0.00,CLR,FEW,0.00,WeatherDisplay:10.37,2013-06-01 18:42:00,
2013-06-01 11:47:00,67.8,47.4,30.11,NNW,338,0.0,0.0,48,0.00,CLR,FEW,0.00,WeatherDisplay:10.37,2013-06-01 18:47:00,
2013-06-01 11:52:00,68.0,47.6,30.10,NNW,338,0.0,0.0,48,0.00,CLR,FEW,0.00,WeatherDisplay:10.37,2013-06-01 18:52:00,
2013-06-01 11:57:00,68.5,48.1,30.10,NNW,338,0.0,0.0,48,0.00,CLR,FEW,0.00,WeatherDisplay:10.37,2013-06-01 18:57:00,
2013-06-01 12:02:00,68.9,48.4,30.10,NNW,338,0.0,0.0,48,0.00,CLR,FEW,0.00,WeatherDisplay:10.37,2013-06-01 19:02:00,
2013-06-01 12:07:00,69.4,48.9,30.09,NNW,338,0.0,0.0,48,0.00,CLR,FEW,0.00,WeatherDisplay:10.37,2013-06-01 19:07:00,
2013-06-01 12:12:00,69.6,49.1,30.10,NNW,338,0.0,0.0,48,0.00,CLR,FEW,0.00,WeatherDisplay:10.37,2013-06-01 19:12:00,
2013-06-01 12:17:00,69.6,48.5,30.09,NNW,338,0.0,0.0,47,0.00,CLR,FEW,0.00,WeatherDisplay:10.37,2013-06-01 19:17:00,
2013-06-01 12:22:00,69.8,47.5,30.09,NNW,338,0.0,0.0,45,0.00,CLR,FEW,0.00,WeatherDisplay:10.37,2013-06-01 19:22:00,
2013-06-01 12:27:00,70.3,48.0,30.08,NNW,338,0.0,0.0,45,0.00,CLR,FEW,0.00,WeatherDisplay:10.37,2013-06-01 19:27:00,
2013-06-01 12:32:00,70.9,48.5,30.08,NNW,338,0.0,0.0,45,0.00,CLR,FEW,0.00,WeatherDisplay:10.37,2013-06-01 19:32:00,
2013-06-01 12:37:00,71.2,48.8,30.08,NNW,338,0.0,0.0,45,0.00,CLR,FEW,0.00,WeatherDisplay:10.37,2013-06-01 19:37:00,
2013-06-01 12:42:00,71.4,49.6,30.07,NNW,338,0.0,0.0,46,0.00,CLR,FEW,0.00,WeatherDisplay:10.37,2013-06-01 19:42:00,
2013-06-01 12:47:00,71.8,49.3,30.07,NNW,338,0.0,0.0,45,0.00,CLR,FEW,0.00,WeatherDisplay:10.37,2013-06-01 19:47:00,
2013-06-01 12:52:00,71.8,48.7,30.07,NNW,338,0.0,0.0,44,0.00,CLR,FEW,0.00,WeatherDisplay:10.37,2013-06-01 19:52:00,
2013-06-01 12:57:00,73.0,51.0,30.06,NNW,338,1.3,1.3,46,0.00,CLR,FEW,0.00,WeatherDisplay:10.37,2013-06-01 19:57:00,
2013-06-01 13:02:00,73.2,50.0,30.06,NNW,338,0.0,0.0,44,0.00,CLR,FEW,0.00,WeatherDisplay:10.37,2013-06-01 20:02:00,
2013-06-01 13:07:00,73.4,48.9,30.05,NNW,338,0.0,0.0,42,0.00,CLR,FEW,0.00,WeatherDisplay:10.37,2013-06-01 20:07:00,
2013-06-01 13:12:00,73.4,48.9,30.05,NNW,338,0.0,0.0,42,0.00,CLR,FEW,0.00,WeatherDisplay:10.37,2013-06-01 20:12:00,
2013-06-01 13:17:00,73.9,49.4,30.05,NNW,338,0.0,0.0,42,0.00,CLR,FEW,0.00,WeatherDisplay:10.37,2013-06-01 20:17:00,
2013-06-01 13:22:00,74.7,50.0,30.05,NNW,338,0.0,0.0,42,0.00,CLR,FEW,0.00,WeatherDisplay:10.37,2013-06-01 20:22:00,
2013-06-01 13:27:00,76.1,50.7,30.04,NNW,338,0.0,0.0,41,0.00,CLR,FEW,0.00,WeatherDisplay:10.37,2013-06-01 20:27:00,
2013-06-01 13:32:00,76.8,51.3,30.04,NNW,338,0.0,0.0,41,0.00,CLR,FEW,0.00,WeatherDisplay:10.37,2013-06-01 20:32:00,
2013-06-01 13:37:00,76.8,50.7,30.04,NNW,338,0.0,0.0,40,0.00,CLR,FEW,0.00,WeatherDisplay:10.37,2013-06-01 20:37:00,
2013-06-01 13:42:00,75.9,49.2,30.04,NNW,338,0.0,0.0,39,0.00,CLR,FEW,0.00,WeatherDisplay:10.37,2013-06-01 20:42:00,
2013-06-01 13:47:00,75.6,49.5,30.04,NNW,338,0.0,0.0,40,0.00,CLR,FEW,0.00,WeatherDisplay:10.37,2013-06-01 20:47:00,
2013-06-01 13:52:00,75.6,49.5,30.03,NNW,338,0.0,0.0,40,0.00,CLR,FEW,0.00,WeatherDisplay:10.37,2013-06-01 20:52:00,
2013-06-01 13:57:00,76.3,49.5,30.03,NNW,338,2.3,2.3,39,0.00,CLR,FEW,0.00,WeatherDisplay:10.37,2013-06-01 20:57:00,
2013-06-01 14:02:00,76.8,47.8,30.03,NNW,338,0.0,0.0,36,0.00,CLR,FEW,0.00,WeatherDisplay:10.37,2013-06-01 21:02:00,
2013-06-01 14:07:00,77.0,48.7,30.03,NNW,338,3.5,3.5,37,0.00,CLR,FEW,0.00,WeatherDisplay:10.37,2013-06-01 21:07:00,
2013-06-01 14:12:00,77.5,46.2,30.03,NNW,338,0.0,0.0,33,0.00,CLR,FEW,0.00,WeatherDisplay:10.37,2013-06-01 21:12:00,
2013-06-01 14:17:00,77.9,46.5,30.02,NNW,338,5.8,6.3,33,0.00,CLR,FEW,0.00,WeatherDisplay:10.37,2013-06-01 21:17:00,
2013-06-01 14:22:00,77.9,46.5,30.02,NNW,338,3.5,3.5,33,0.00,CLR,FEW,0.00,WeatherDisplay:10.37,2013-06-01 21:22:00,
2013-06-01 14:27:00,77.5,46.2,30.02,NNW,338,1.6,1.6,33,0.00,CLR,FEW,0.00,WeatherDisplay:10.37,2013-06-01 21:27:00,
2013-06-01 14:32:00,77.4,47.6,30.02,NNW,338,6.9,6.9,35,0.00,CLR,FEW,0.00,WeatherDisplay:10.37,2013-06-01 21:32:00,
2013-06-01 14:37:00,77.2,48.2,30.01,NNW,338,0.0,0.0,36,0.00,CLR,FEW,0.00,WeatherDisplay:10.37,2013-06-01 21:37:00,
2013-06-01 14:42:00,77.5,48.5,30.01,NNW,338,4.7,4.7,36,0.00,CLR,FEW,0.00,WeatherDisplay:10.37,2013-06-01 21:42:00,
2013-06-01 14:47:00,77.5,48.5,30.01,NNW,338,6.9,0.0,36,0.00,CLR,FEW,0.00,WeatherDisplay:10.37,2013-06-01 21:47:00,
2013-06-01 14:52:00,77.5,47.7,30.01,NNW,338,3.8,3.8,35,0.00,CLR,FEW,0.00,WeatherDisplay:10.37,2013-06-01 21:52:00,
2013-06-01 14:57:00,77.5,47.7,30.01,NNW,338,6.9,6.9,35,0.00,CLR,FEW,0.00,WeatherDisplay:10.37,2013-06-01 21:57:00,
2013-06-01 15:02:00,77.5,47.7,30.00,NNW,338,3.5,3.6,35,0.00,CLR,FEW,0.00,WeatherDisplay:10.37,2013-06-01 22:02:00,
2013-06-01 15:07:00,77.5,47.7,30.00,NNW,338,3.8,3.8,35,0.00,CLR,FEW,0.00,WeatherDisplay:10.37,2013-06-01 22:07:00,
2013-06-01 15:12:00,77.4,47.6,30.00,NNW,338,1.1,1.1,35,0.00,CLR,FEW,0.00,WeatherDisplay:10.37,2013-06-01 22:12:00,
2013-06-01 15:17:00,77.5,47.7,30.00,NNW,338,5.8,5.8,35,0.00,CLR,FEW,0.00,WeatherDisplay:10.37,2013-06-01 22:17:00,
2013-06-01 15:22:00,77.5,46.9,30.00,NNW,338,5.8,5.8,34,0.00,CLR,FEW,0.00,WeatherDisplay:10.37,2013-06-01 22:22:00,
2013-06-01 15:27:00,77.4,47.6,30.00,NNW,338,1.1,1.1,35,0.00,CLR,FEW,0.00,WeatherDisplay:10.37,2013-06-01 22:27:00,
2013-06-01 15:32:00,77.2,45.8,30.00,NNW,338,6.9,0.0,33,0.00,CLR,FEW,0.00,WeatherDisplay:10.37,2013-06-01 22:32:00,
2013-06-01 15:37:00,77.0,47.2,29.99,NNW,338,0.0,0.0,35,0.00,CLR,FEW,0.00,WeatherDisplay:10.37,2013-06-01 22:37:00,
2013-06-01 15:42:00,77.0,47.2,29.99,NNW,338,1.6,1.6,35,0.00,CLR,FEW,0.00,WeatherDisplay:10.37,2013-06-01 22:42:00,
2013-06-01 15:47:00,77.0,47.2,29.99,NNW,338,8.1,8.1,35,0.00,CLR,FEW,0.00,WeatherDisplay:10.37,2013-06-01 22:47:00,
2013-06-01 15:52:00,76.6,45.4,29.99,NNW,338,6.9,6.9,33,0.00,CLR,FEW,0.00,WeatherDisplay:10.37,2013-06-01 22:52:00,
2013-06-01 15:57:00,76.3,45.1,29.99,NNW,338,3.5,3.5,33,0.00,CLR,FEW,0.00,WeatherDisplay:10.37,2013-06-01 22:57:00,
2013-06-01 16:02:00,76.3,45.1,29.99,NNW,338,4.6,4.6,33,0.00,CLR,FEW,0.00,WeatherDisplay:10.37,2013-06-01 23:02:00,
2013-06-01 16:07:00,76.5,45.2,29.99,NNW,338,2.3,2.3,33,0.00,CLR,FEW,0.00,WeatherDisplay:10.37,2013-06-01 23:07:00,
2013-06-01 16:12:00,76.6,45.4,29.99,NNW,338,8.1,8.1,33,0.00,CLR,FEW,0.00,WeatherDisplay:10.37,2013-06-01 23:12:00,
2013-06-01 16:17:00,76.6,45.4,29.98,NNW,338,0.0,0.0,33,0.00,CLR,FEW,0.00,WeatherDisplay:10.37,2013-06-01 23:17:00,
2013-06-01 16:22:00,77.0,45.7,29.98,NNW,338,5.4,5.4,33,0.00,CLR,FEW,0.00,WeatherDisplay:10.37,2013-06-01 23:22:00,
2013-06-01 16:27:00,77.0,44.9,29.98,NNW,338,6.0,6.0,32,0.00,CLR,FEW,0.00,WeatherDisplay:10.37,2013-06-01 23:27:00,
2013-06-01 16:32:00,76.8,44.7,29.98,NNW,338,4.9,4.9,32,0.00,CLR,FEW,0.00,WeatherDisplay:10.37,2013-06-01 23:32:00,
2013-06-01 16:37:00,76.8,44.7,29.98,NNW,338,6.3,6.3,32,0.00,CLR,FEW,0.00,WeatherDisplay:10.37,2013-06-01 23:37:00,
2013-06-01 16:42:00,76.6,44.6,29.97,NNW,338,4.6,4.6,32,0.00,CLR,FEW,0.00,WeatherDisplay:10.37,2013-06-01 23:42:00,
2013-06-01 16:47:00,76.6,44.6,29.97,NNW,338,6.9,6.9,32,0.00,CLR,FEW,0.00,WeatherDisplay:10.37,2013-06-01 23:47:00,
2013-06-01 16:52:00,76.6,44.6,29.97,NNW,338,3.5,3.5,32,0.00,CLR,FEW,0.00,WeatherDisplay:10.37,2013-06-01 23:52:00,
2013-06-01 16:57:00,76.3,45.1,29.97,NNW,338,0.0,0.0,33,0.00,CLR,FEW,0.00,WeatherDisplay:10.37,2013-06-01 23:57:00,
2013-06-01 17:02:00,76.3,45.1,29.97,NNW,338,0.0,0.0,33,0.00,CLR,FEW,0.00,WeatherDisplay:10.37,2013-06-02 00:02:00,
2013-06-01 17:07:00,76.1,44.9,29.97,NNW,338,5.8,5.8,33,0.00,CLR,FEW,0.00,WeatherDisplay:10.37,2013-06-02 00:07:00,
2013-06-01 17:12:00,75.9,44.7,29.97,NNW,338,0.0,0.0,33,0.00,CLR,FEW,0.00,WeatherDisplay:10.37,2013-06-02 00:12:00,
2013-06-01 17:17:00,75.9,44.7,29.97,NNW,338,3.5,0.0,33,0.00,CLR,FEW,0.00,WeatherDisplay:10.37,2013-06-02 00:17:00,
2013-06-01 17:22:00,75.7,44.6,29.96,NNW,338,1.1,1.1,33,0.00,CLR,FEW,0.00,WeatherDisplay:10.37,2013-06-02 00:22:00,
2013-06-01 17:27:00,75.6,44.4,29.96,NNW,338,2.3,2.3,33,0.00,CLR,FEW,0.00,WeatherDisplay:10.37,2013-06-02 00:27:00,
2013-06-01 17:32:00,75.6,44.4,29.96,NNW,338,0.0,0.0,33,0.00,CLR,FEW,0.00,WeatherDisplay:10.37,2013-06-02 00:32:00,
2013-06-01 17:37:00,75.6,44.4,29.96,NNW,338,0.0,0.0,33,0.00,CLR,FEW,0.00,WeatherDisplay:10.37,2013-06-02 00:37:00,
2013-06-01 17:42:00,75.7,45.4,29.96,NNW,338,2.3,2.3,34,0.00,CLR,FEW,0.00,WeatherDisplay:10.37,2013-06-02 00:42:00,
2013-06-01 17:47:00,75.9,44.7,29.96,NNW,338,3.5,3.5,33,0.00,CLR,FEW,0.00,WeatherDisplay:10.37,2013-06-02 00:47:00,
2013-06-01 17:52:00,76.1,45.7,29.96,NNW,338,4.9,4.9,34,0.00,CLR,FEW,0.00,WeatherDisplay:10.37,2013-06-02 00:52:00,
2013-06-01 17:57:00,76.3,45.1,29.96,NNW,338,1.1,1.1,33,0.00,CLR,FEW,0.00,WeatherDisplay:10.37,2013-06-02 00:57:00,
2013-06-01 18:02:00,76.5,45.2,29.95,NNW,338,2.3,0.0,33,0.00,CLR,FEW,0.00,WeatherDisplay:10.37,2013-06-02 01:02:00,
2013-06-01 18:07:00,76.8,45.5,29.95,NNW,338,5.4,5.4,33,0.00,CLR,FEW,0.00,WeatherDisplay:10.37,2013-06-02 01:07:00,
2013-06-01 18:12:00,76.8,45.5,29.95,NNW,338,6.9,6.9,33,0.00,CLR,FEW,0.00,WeatherDisplay:10.37,2013-06-02 01:12:00,
2013-06-01 18:17:00,76.6,45.4,29.95,NNW,338,5.1,5.1,33,0.00,CLR,FEW,0.00,WeatherDisplay:10.37,2013-06-02 01:17:00,
2013-06-01 18:22:00,76.3,45.1,29.95,NNW,338,0.0,0.0,33,0.00,CLR,FEW,0.00,WeatherDisplay:10.37,2013-06-02 01:22:00,
2013-06-01 18:27:00,75.9,45.5,29.95,NNW,338,2.3,2.3,34,0.00,CLR,FEW,0.00,WeatherDisplay:10.37,2013-06-02 01:27:00,
2013-06-01 18:32:00,75.7,44.6,29.95,NNW,338,6.9,0.0,33,0.00,CLR,FEW,0.00,WeatherDisplay:10.37,2013-06-02 01:32:00,
2013-06-01 18:37:00,75.6,45.2,29.95,NNW,338,0.9,0.9,34,0.00,CLR,FEW,0.00,WeatherDisplay:10.37,2013-06-02 01:37:00,
2013-06-01 18:42:00,75.2,44.9,29.95,NNW,338,0.0,0.0,34,0.00,CLR,FEW,0.00,WeatherDisplay:10.37,2013-06-02 01:42:00,
2013-06-01 18:47:00,75.4,45.1,29.95,NNW,338,1.1,1.6,34,0.00,CLR,FEW,0.00,WeatherDisplay:10.37,2013-06-02 01:47:00,
2013-06-01 18:52:00,75.7,46.1,29.95,NNW,338,0.0,0.0,35,0.00,CLR,FEW,0.00,WeatherDisplay:10.37,2013-06-02 01:52:00,
2013-06-01 18:57:00,75.9,45.5,29.94,NNW,338,2.3,2.3,34,0.00,CLR,FEW,0.00,WeatherDisplay:10.37,2013-06-02 01:57:00,
2013-06-01 19:02:00,75.9,45.5,29.94,NNW,338,0.0,0.0,34,0.00,CLR,FEW,0.00,WeatherDisplay:10.37,2013-06-02 02:02:00,
2013-06-01 19:07:00,75.4,45.1,29.94,NNW,338,2.3,2.3,34,0.00,CLR,FEW,0.00,WeatherDisplay:10.37,2013-06-02 02:07:00,
2013-06-01 19:12:00,75.0,45.5,29.94,NNW,338,0.0,0.0,35,0.00,CLR,FEW,0.00,WeatherDisplay:10.37,2013-06-02 02:12:00,
2013-06-01 19:17:00,74.5,45.8,29.94,NNW,338,0.0,0.0,36,0.00,CLR,FEW,0.00,WeatherDisplay:10.37,2013-06-02 02:17:00,
2013-06-01 19:22:00,74.5,46.5,29.94,NNW,338,0.0,0.0,37,0.00,CLR,FEW,0.00,WeatherDisplay:10.37,2013-06-02 02:22:00,
2013-06-01 19:27:00,74.1,47.6,29.94,NNW,338,0.0,0.0,39,0.00,CLR,FEW,0.00,WeatherDisplay:10.37,2013-06-02 02:27:00,
2013-06-01 19:32:00,73.4,46.9,29.94,NNW,338,2.3,2.3,39,0.00,CLR,FEW,0.00,WeatherDisplay:10.37,2013-06-02 02:32:00,
2013-06-01 19:37:00,72.7,47.0,29.95,NNW,338,3.5,3.5,40,0.00,CLR,FEW,0.00,WeatherDisplay:10.37,2013-06-02 02:37:00,
2013-06-01 19:42:00,72.1,46.5,29.94,NNW,338,0.0,0.0,40,0.00,CLR,FEW,0.00,WeatherDisplay:10.37,2013-06-02 02:42:00,
2013-06-01 19:47:00,71.4,45.8,29.94,NNW,338,0.0,0.0,40,0.00,CLR,FEW,0.00,WeatherDisplay:10.37,2013-06-02 02:47:00,
2013-06-01 19:52:00,71.2,47.0,29.94,NNW,338,0.0,0.0,42,0.00,CLR,FEW,0.00,WeatherDisplay:10.37,2013-06-02 02:52:00,
2013-06-01 19:57:00,70.7,47.1,29.94,NNW,338,0.0,0.0,43,0.00,CLR,FEW,0.00,WeatherDisplay:10.37,2013-06-02 02:57:00,
2013-06-01 20:02:00,69.3,47.0,29.94,NNW,338,0.0,0.0,45,0.00,CLR,FEW,0.00,WeatherDisplay:10.37,2013-06-02 03:02:00,
2013-06-01 20:07:00,68.7,46.5,29.94,NNW,338,0.0,0.0,45,0.00,CLR,FEW,0.00,WeatherDisplay:10.37,2013-06-02 03:07:00,
2013-06-01 20:12:00,68.2,46.0,29.94,NNW,338,0.0,0.0,45,0.00,CLR,FEW,0.00,WeatherDisplay:10.37,2013-06-02 03:12:00,
2013-06-01 20:17:00,67.1,46.7,29.94,NNW,338,0.0,0.0,48,0.00,CLR,FEW,0.00,WeatherDisplay:10.37,2013-06-02 03:17:00,
2013-06-01 20:22:00,66.4,47.2,29.94,NNW,338,0.0,0.0,50,0.00,CLR,FEW,0.00,WeatherDisplay:10.37,2013-06-02 03:22:00,
2013-06-01 20:27:00,66.2,47.5,29.94,NNW,338,0.0,0.0,51,0.00,CLR,FEW,0.00,WeatherDisplay:10.37,2013-06-02 03:27:00,
2013-06-01 20:32:00,65.3,47.2,29.94,NNW,338,0.0,0.0,52,0.00,CLR,FEW,0.00,WeatherDisplay:10.37,2013-06-02 03:32:00,
2013-06-01 20:37:00,64.8,47.2,29.94,NNW,338,0.0,0.0,53,0.00,CLR,FEW,0.00,WeatherDisplay:10.37,2013-06-02 03:37:00,
2013-06-01 20:42:00,64.2,47.2,29.94,NNW,338,0.0,0.0,54,0.00,CLR,FEW,0.00,WeatherDisplay:10.37,2013-06-02 03:42:00,
2013-06-01 20:47:00,64.0,47.5,29.95,NNW,338,0.0,0.0,55,0.00,CLR,FEW,0.00,WeatherDisplay:10.37,2013-06-02 03:47:00,
2013-06-01 20:52:00,63.3,47.3,29.95,NNW,338,0.0,0.0,56,0.00,CLR,FEW,0.00,WeatherDisplay:10.37,2013-06-02 03:52:00,
2013-06-01 20:57:00,63.1,47.2,29.94,NNW,338,0.0,0.0,56,0.00,CLR,FEW,0.00,WeatherDisplay:10.37,2013-06-02 03:57:00,
2013-06-01 21:01:00,62.8,47.3,29.94,NNW,338,0.0,0.0,57,0.00,CLR,FEW,0.00,WeatherDisplay:10.37,2013-06-02 04:01:00,
2013-06-01 21:06:00,62.8,47.8,29.95,NNW,338,0.0,0.0,58,0.00,CLR,FEW,0.00,WeatherDisplay:10.37,2013-06-02 04:06:00,
2013-06-01 21:11:00,62.4,47.4,29.95,NNW,338,0.0,0.0,58,0.00,CLR,FEW,0.00,WeatherDisplay:10.37,2013-06-02 04:11:00,
2013-06-01 21:16:00,61.9,47.4,29.96,NNW,338,0.0,0.0,59,0.00,CLR,FEW,0.00,WeatherDisplay:10.37,2013-06-02 04:16:00,
2013-06-01 21:21:00,61.3,47.3,29.96,NNW,338,0.0,0.0,60,0.00,CLR,FEW,0.00,WeatherDisplay:10.37,2013-06-02 04:21:00,
2013-06-01 21:26:00,61.2,47.6,29.95,NNW,338,0.0,0.0,61,0.00,CLR,FEW,0.00,WeatherDisplay:10.37,2013-06-02 04:26:00,
2013-06-01 21:31:00,61.0,47.4,29.95,NNW,338,0.0,0.0,61,0.00,CLR,FEW,0.00,WeatherDisplay:10.37,2013-06-02 04:31:00,
2013-06-01 21:36:00,60.6,47.5,29.95,NNW,338,0.0,0.0,62,0.00,CLR,FEW,0.00,WeatherDisplay:10.37,2013-06-02 04:36:00,
2013-06-01 21:41:00,60.4,47.4,29.95,NNW,338,0.0,0.0,62,0.00,CLR,FEW,0.00,WeatherDisplay:10.37,2013-06-02 04:41:00,
2013-06-01 21:46:00,60.1,47.0,29.95,NNW,338,0.0,0.0,62,0.00,CLR,FEW,0.00,WeatherDisplay:10.37,2013-06-02 04:46:00,
2013-06-01 21:51:00,60.1,47.0,29.96,NNW,338,0.0,0.0,62,0.00,CLR,FEW,0.00,WeatherDisplay:10.37,2013-06-02 04:51:00,
2013-06-01 21:56:00,59.5,47.3,29.96,NNW,338,4.7,4.7,64,0.00,CLR,FEW,0.00,WeatherDisplay:10.37,2013-06-02 04:56:00,
2013-06-01 22:01:00,58.8,47.5,29.95,NNW,338,0.0,0.0,66,0.00,CLR,FEW,0.00,WeatherDisplay:10.37,2013-06-02 05:01:00,
2013-06-01 22:06:00,58.3,47.0,29.95,NNW,338,0.0,0.0,66,0.00,CLR,FEW,0.00,WeatherDisplay:10.37,2013-06-02 05:06:00,
2013-06-01 22:11:00,58.5,47.5,29.95,NNW,338,0.0,0.0,67,0.00,CLR,FEW,0.00,WeatherDisplay:10.37,2013-06-02 05:11:00,
2013-06-01 22:16:00,58.6,47.7,29.95,NNW,338,0.0,0.0,67,0.00,CLR,FEW,0.00,WeatherDisplay:10.37,2013-06-02 05:16:00,
2013-06-01 22:21:00,58.8,47.9,29.96,NNW,338,0.0,0.0,67,0.00,CLR,FEW,0.00,WeatherDisplay:10.37,2013-06-02 05:21:00,
2013-06-01 22:26:00,58.8,47.5,29.96,NNW,338,0.0,0.0,66,0.00,CLR,FEW,0.00,WeatherDisplay:10.37,2013-06-02 05:26:00,
2013-06-01 22:31:00,58.8,47.9,29.96,NNW,338,0.0,0.0,67,0.00,CLR,FEW,0.00,WeatherDisplay:10.37,2013-06-02 05:31:00,
2013-06-01 22:36:00,58.6,47.7,29.95,NNW,338,0.0,0.0,67,0.00,CLR,FEW,0.00,WeatherDisplay:10.37,2013-06-02 05:36:00,
2013-06-01 22:41:00,58.3,47.8,29.95,NNW,338,0.0,0.0,68,0.00,CLR,FEW,0.00,WeatherDisplay:10.37,2013-06-02 05:41:00,
2013-06-01 22:46:00,58.3,47.4,29.95,NNW,338,0.0,0.0,67,0.00,CLR,FEW,0.00,WeatherDisplay:10.37,2013-06-02 05:46:00,
2013-06-01 22:51:00,58.1,47.2,29.95,NNW,338,0.0,0.0,67,0.00,CLR,FEW,0.00,WeatherDisplay:10.37,2013-06-02 05:51:00,
2013-06-01 22:56:00,57.9,47.4,29.95,NNW,338,0.0,0.0,68,0.00,CLR,FEW,0.00,WeatherDisplay:10.37,2013-06-02 05:56:00,
2013-06-01 23:01:00,57.7,47.2,29.95,NNW,338,0.0,0.0,68,0.00,CLR,FEW,0.00,WeatherDisplay:10.37,2013-06-02 06:01:00,
2013-06-01 23:06:00,57.4,46.9,29.95,NNW,338,0.0,0.0,68,0.00,CLR,FEW,0.00,WeatherDisplay:10.37,2013-06-02 06:06:00,
2013-06-01 23:11:00,57.0,46.9,29.95,NNW,338,0.0,0.0,69,0.00,CLR,FEW,0.00,WeatherDisplay:10.37,2013-06-02 06:11:00,
2013-06-01 23:16:00,57.0,46.9,29.94,NNW,338,0.0,0.0,69,0.00,CLR,FEW,0.00,WeatherDisplay:10.37,2013-06-02 06:16:00,
2013-06-01 23:21:00,56.8,46.8,29.94,NNW,338,0.0,0.0,69,0.00,CLR,FEW,0.00,WeatherDisplay:10.37,2013-06-02 06:21:00,
2013-06-01 23:26:00,56.8,47.2,29.95,NNW,338,0.0,0.0,70,0.00,CLR,FEW,0.00,WeatherDisplay:10.37,2013-06-02 06:26:00,
2013-06-01 23:31:00,56.5,46.8,29.95,NNW,338,0.0,0.0,70,0.00,CLR,FEW,0.00,WeatherDisplay:10.37,2013-06-02 06:31:00,
2013-06-01 23:36:00,55.9,46.7,29.95,NNW,338,0.0,0.0,71,0.00,CLR,FEW,0.00,WeatherDisplay:10.37,2013-06-02 06:36:00,
2013-06-01 23:41:00,55.9,46.7,29.94,NNW,338,0.0,0.0,71,0.00,CLR,FEW,0.00,WeatherDisplay:10.37,2013-06-02 06:41:00,
2013-06-01 23:46:00,55.8,46.9,29.95,NNW,338,0.0,0.0,72,0.00,CLR,FEW,0.00,WeatherDisplay:10.37,2013-06-02 06:46:00,
2013-06-01 23:51:00,55.4,46.5,29.95,NNW,338,0.0,0.0,72,0.00,CLR,FEW,0.00,WeatherDisplay:10.37,2013-06-02 06:51:00,
2013-06-01 23:56:00,55.2,46.3,29.94,NNW,338,0.0,0.0,72,0.00,CLR,FEW,0.00,WeatherDisplay:10.37,2013-06-02 06:56:00,